| time (UTC) | temp C | wind direction | speed KPH | gust KPH | rain 1hr cm | rain 24hr cm | rain mn cm | humidity % | barometer mb |
| 20260503231512 | 26 | 360 | 3.2 | 14.5 | 0.00 | 0.00 | 0.00 | 33 | 1012.3 |
| 20260503230007 | 26 | 360 | 3.2 | 12.9 | 0.00 | 0.00 | 0.00 | 34 | 1012.5 |
| 20260503224505 | 27 | 360 | 4.8 | 17.7 | 0.00 | 0.00 | 0.00 | 32 | 1012.6 |
| 20260503223004 | 27 | 175 | 8.0 | 16.1 | 0.00 | 0.00 | 0.00 | 33 | 1012.7 |
| 20260503221503 | 27 | 219 | 6.4 | 14.5 | 0.00 | 0.00 | 0.00 | 30 | 1013.0 |
| 20260503220101 | 27 | 360 | 6.4 | 16.1 | 0.00 | 0.00 | 0.00 | 31 | 1012.9 |
| 20260503214601 | 27 | 360 | 4.8 | 14.5 | 0.00 | 0.00 | 0.00 | 31 | 1013.2 |
| 20260503213108 | 27 | 360 | 4.8 | 12.9 | 0.00 | 0.00 | 0.00 | 31 | 1013.4 |
| 20260503211556 | 27 | 360 | 3.2 | 17.7 | 0.00 | 0.00 | 0.00 | 34 | 1013.7 |
| 20260503210101 | 27 | 360 | 4.8 | 12.9 | 0.00 | 0.00 | 0.00 | 31 | 1013.9 |
| 20260503204555 | 27 | 162 | 6.4 | 17.7 | 0.00 | 0.00 | 0.00 | 32 | 1014.1 |
| 20260503203051 | 27 | 188 | 4.8 | 12.9 | 0.00 | 0.00 | 0.00 | 32 | 1014.5 |
| 20260503201551 | 27 | 236 | 4.8 | 11.3 | 0.00 | 0.00 | 0.00 | 33 | 1014.6 |
| 20260503200054 | 27 | 169 | 6.4 | 12.9 | 0.00 | 0.00 | 0.00 | 34 | 1015.0 |
| 20260503194547 | 27 | 200 | 4.8 | 12.9 | 0.00 | 0.00 | 0.00 | 32 | 1015.2 |
| 20260503193052 | 27 | 224 | 8.0 | 14.5 | 0.00 | 0.00 | 0.00 | 29 | 1015.5 |
| 20260503191544 | 27 | 152 | 4.8 | 16.1 | 0.00 | 0.00 | 0.00 | 37 | 1015.6 |
| 20260503190042 | 28 | 196 | 6.4 | 17.7 | 0.00 | 0.00 | 0.00 | 33 | 1015.6 |
| 20260503184551 | 28 | 221 | 6.4 | 14.5 | 0.00 | 0.00 | 0.00 | 34 | 1015.7 |
| 20260503183054 | 27 | 236 | 4.8 | 11.3 | 0.00 | 0.00 | 0.00 | 31 | 1016.0 |
| 20260503181534 | 27 | 207 | 3.2 | 12.9 | 0.00 | 0.00 | 0.00 | 37 | 1016.1 |
| 20260503180040 | 27 | 230 | 4.8 | 9.7 | 0.00 | 0.00 | 0.00 | 36 | 1016.5 |
| 20260503174529 | 26 | 217 | 3.2 | 8.0 | 0.00 | 0.00 | 0.00 | 38 | 1017.0 |
| 20260503173042 | 26 | 261 | 4.8 | 9.7 | 0.00 | 0.00 | 0.00 | 37 | 1017.0 |
| 20260503171527 | 26 | 233 | 1.6 | 9.7 | 0.00 | 0.00 | 0.00 | 43 | 1017.1 |
| 20260503100107 | 11 | 151 | 0.0 | 4.8 | 0.00 | 0.00 | 0.00 | 77 | 1017.8 |
| 20260503081546 | 13 | 360 | 1.6 | 4.8 | 0.00 | 0.00 | 0.00 | 71 | 1018.6 |
| 20260503071539 | 13 | 360 | 1.6 | 4.8 | 0.00 | 0.00 | 0.00 | 71 | 1019.3 |
| 20260503054535 | 14 | 106 | 0.0 | 4.8 | 0.00 | 0.00 | 0.00 | 68 | 1019.6 |
| 20260503053033 | 14 | 101 | 0.0 | 3.2 | 0.00 | 0.00 | 0.00 | 68 | 1019.7 |
| 20260503051523 | 15 | 101 | 0.0 | 1.6 | 0.00 | 0.00 | 0.00 | 68 | 1019.6 |
| 20260503050020 | 15 | 101 | 0.0 | 1.6 | 0.00 | 0.00 | 0.00 | 69 | 1019.6 |
| 20260503044519 | 15 | 360 | 0.0 | 3.2 | 0.00 | 0.00 | 0.00 | 66 | 1019.6 |
| 20260503043019 | 16 | 360 | 0.0 | 3.2 | 0.00 | 0.00 | 0.00 | 64 | 1019.6 |
| 20260503041519 | 16 | 360 | 0.0 | 3.2 | 0.00 | 0.00 | 0.00 | 61 | 1019.4 |
| 20260503040018 | 16 | 98 | 0.0 | 3.2 | 0.00 | 0.00 | 0.00 | 60 | 1019.5 |
| 20260503034534 | 16 | 95 | 0.0 | 3.2 | 0.00 | 0.00 | 0.00 | 58 | 1019.5 |
| 20260503033018 | 17 | 360 | 0.0 | 3.2 | 0.00 | 0.00 | 0.00 | 58 | 1019.4 |
| 20260503031520 | 17 | 360 | 0.0 | 3.2 | 0.00 | 0.00 | 0.00 | 57 | 1019.2 |
| 20260503030016 | 17 | 360 | 0.0 | 3.2 | 0.00 | 0.00 | 0.00 | 56 | 1019.0 |
| 20260503024516 | 18 | 360 | 0.0 | 3.2 | 0.00 | 0.00 | 0.00 | 55 | 1018.9 |
| 20260503023016 | 18 | 360 | 0.0 | 3.2 | 0.00 | 0.00 | 0.00 | 55 | 1018.9 |
| 20260503021515 | 18 | 360 | 0.0 | 4.8 | 0.00 | 0.00 | 0.00 | 54 | 1018.7 |
| 20260503020015 | 18 | 360 | 0.0 | 3.2 | 0.00 | 0.00 | 0.00 | 52 | 1018.5 |
| 20260503014517 | 19 | 360 | 0.0 | 3.2 | 0.00 | 0.00 | 0.00 | 51 | 1018.5 |
| 20260503013017 | 20 | 360 | 0.0 | 3.2 | 0.00 | 0.00 | 0.00 | 49 | 1018.2 |
| 20260503011513 | 21 | 360 | 0.0 | 4.8 | 0.00 | 0.00 | 0.00 | 48 | 1018.1 |
| 20260503010013 | 21 | 360 | 0.0 | 4.8 | 0.00 | 0.00 | 0.00 | 46 | 1018.1 |
| 20260503004512 | 21 | 360 | 0.0 | 3.2 | 0.00 | 0.00 | 0.00 | 44 | 1018.0 |
| 20260503003012 | 22 | 360 | 0.0 | 4.8 | 0.00 | 0.00 | 0.00 | 43 | 1018.1 |
| 20260503001512 | 22 | 360 | 1.6 | 8.0 | 0.00 | 0.00 | 0.00 | 43 | 1017.9 |
| 20260503000011 | 22 | 360 | 1.6 | 6.4 | 0.00 | 0.00 | 0.00 | 42 | 1017.9 |
| 20260502234510 | 22 | 360 | 1.6 | 6.4 | 0.00 | 0.00 | 0.00 | 42 | 1018.0 |
| 20260502233010 | 23 | 360 | 1.6 | 4.8 | 0.00 | 0.00 | 0.00 | 42 | 1018.0 |